| time (UTC) | temp F | wind direction | speed knots | gust knots | rain 1hr in | rain 24hr in | rain mn in | humidity % | barometer mb |
| 20260510161519 | 55 | 82 | 0.9 | 3.5 | 0.00 | 0.00 | 0.00 | 56 | 1015.5 |
| 20260510160026 | 56 | 44 | 2.6 | 11.3 | 0.00 | 0.00 | 0.00 | 56 | 1015.6 |
| 20260510154510 | 55 | 71 | 3.5 | 9.6 | 0.00 | 0.00 | 0.00 | 57 | 1015.9 |
| 20260510153014 | 54 | 60 | 1.7 | 7.8 | 0.00 | 0.00 | 0.00 | 60 | 1016.0 |
| 20260510151515 | 54 | 86 | 3.5 | 10.4 | 0.00 | 0.00 | 0.00 | 60 | 1016.2 |
| 20260510150022 | 54 | 70 | 2.6 | 7.0 | 0.00 | 0.00 | 0.00 | 60 | 1016.3 |
| 20260510144527 | 55 | 94 | 3.5 | 8.7 | 0.00 | 0.00 | 0.00 | 60 | 1016.5 |
| 20260510143015 | 54 | 49 | 2.6 | 10.4 | 0.00 | 0.00 | 0.00 | 62 | 1016.6 |
| 20260510141516 | 54 | 63 | 3.5 | 10.4 | 0.00 | 0.00 | 0.00 | 63 | 1016.8 |
| 20260510140019 | 54 | 68 | 2.6 | 8.7 | 0.00 | 0.00 | 0.00 | 63 | 1016.7 |
| 20260510134524 | 54 | 36 | 2.6 | 7.8 | 0.00 | 0.00 | 0.00 | 64 | 1016.7 |
| 20260510133026 | 54 | 67 | 2.6 | 7.0 | 0.00 | 0.00 | 0.00 | 65 | 1016.8 |
| 20260510131511 | 54 | 71 | 1.7 | 7.0 | 0.00 | 0.00 | 0.00 | 65 | 1016.9 |
| 20260510130018 | 53 | 68 | 5.2 | 9.6 | 0.00 | 0.00 | 0.00 | 66 | 1017.0 |
| 20260510124522 | 54 | 36 | 2.6 | 8.7 | 0.00 | 0.00 | 0.00 | 66 | 1017.2 |
| 20260510123024 | 54 | 69 | 3.5 | 8.7 | 0.00 | 0.00 | 0.00 | 66 | 1017.2 |
| 20260510121527 | 53 | 141 | 0.9 | 8.7 | 0.00 | 0.00 | 0.00 | 69 | 1017.3 |
| 20260510120016 | 54 | 79 | 2.6 | 8.7 | 0.00 | 0.00 | 0.00 | 68 | 1017.5 |
| 20260510114520 | 54 | 77 | 1.7 | 10.4 | 0.00 | 0.00 | 0.00 | 67 | 1017.5 |
| 20260510113030 | 54 | 91 | 5.2 | 11.3 | 0.00 | 0.00 | 0.00 | 67 | 1017.8 |
| 20260510111524 | 55 | 57 | 3.5 | 11.3 | 0.00 | 0.00 | 0.00 | 66 | 1017.7 |
| 20260510110033 | 56 | 68 | 2.6 | 11.3 | 0.00 | 0.00 | 0.00 | 65 | 1017.8 |
| 20260510104515 | 55 | 68 | 2.6 | 8.7 | 0.00 | 0.00 | 0.00 | 65 | 1017.8 |
| 20260510103021 | 56 | 84 | 1.7 | 6.1 | 0.00 | 0.00 | 0.00 | 66 | 1017.9 |
| 20260510101525 | 54 | 50 | 3.5 | 11.3 | 0.00 | 0.00 | 0.00 | 68 | 1018.0 |
| 20260510100025 | 55 | 66 | 4.3 | 10.4 | 0.00 | 0.00 | 0.00 | 67 | 1017.9 |
| 20260510094528 | 55 | 60 | 2.6 | 9.6 | 0.00 | 0.00 | 0.00 | 67 | 1017.9 |
| 20260510093025 | 54 | 86 | 2.6 | 11.3 | 0.00 | 0.00 | 0.00 | 68 | 1018.0 |
| 20260510091526 | 53 | 72 | 3.5 | 11.3 | 0.00 | 0.00 | 0.00 | 69 | 1018.2 |
| 20260510090040 | 53 | 53 | 4.3 | 11.3 | 0.00 | 0.00 | 0.00 | 69 | 1018.2 |
| 20260510084529 | 52 | 11 | 1.7 | 7.8 | 0.00 | 0.00 | 0.00 | 72 | 1018.4 |
| 20260510083029 | 52 | 83 | 4.3 | 9.6 | 0.00 | 0.00 | 0.00 | 73 | 1018.5 |
| 20260510081520 | 51 | 87 | 2.6 | 8.7 | 0.00 | 0.00 | 0.00 | 75 | 1018.6 |
| 20260510080024 | 51 | 86 | 1.7 | 8.7 | 0.00 | 0.00 | 0.00 | 75 | 1018.6 |
| 20260510074528 | 51 | 91 | 3.5 | 7.0 | 0.00 | 0.00 | 0.00 | 76 | 1018.5 |
| 20260510073027 | 50 | 73 | 3.5 | 8.7 | 0.00 | 0.00 | 0.00 | 76 | 1018.5 |
| 20260510071529 | 50 | 64 | 3.5 | 12.2 | 0.00 | 0.00 | 0.00 | 77 | 1018.4 |
| 20260510070021 | 50 | 74 | 2.6 | 7.0 | 0.00 | 0.00 | 0.00 | 77 | 1018.4 |
| 20260510064529 | 50 | 65 | 2.6 | 7.8 | 0.00 | 0.00 | 0.00 | 78 | 1018.4 |
| 20260510063026 | 50 | 39 | 2.6 | 7.8 | 0.00 | 0.00 | 0.00 | 79 | 1018.4 |
| 20260510061530 | 50 | 101 | 2.6 | 7.8 | 0.00 | 0.00 | 0.00 | 79 | 1018.2 |
| 20260510060028 | 49 | 79 | 1.7 | 5.2 | 0.00 | 0.00 | 0.00 | 80 | 1018.1 |
| 20260510054524 | 49 | 75 | 1.7 | 8.7 | 0.00 | 0.00 | 0.00 | 80 | 1018.1 |
| 20260510053026 | 49 | 58 | 1.7 | 7.8 | 0.00 | 0.00 | 0.00 | 81 | 1018.1 |
| 20260510051512 | 49 | 88 | 0.9 | 7.0 | 0.00 | 0.00 | 0.00 | 81 | 1018.1 |
| 20260510050016 | 49 | 72 | 2.6 | 7.0 | 0.00 | 0.00 | 0.00 | 81 | 1018.1 |
| 20260510044529 | 49 | 87 | 1.7 | 7.0 | 0.00 | 0.00 | 0.00 | 80 | 1018.0 |
| 20260510043026 | 49 | 99 | 0.9 | 5.2 | 0.00 | 0.00 | 0.00 | 80 | 1018.1 |
| 20260510041507 | 49 | 354 | 1.7 | 7.0 | 0.00 | 0.00 | 0.00 | 80 | 1018.0 |
| 20260510040011 | 49 | 81 | 1.7 | 5.2 | 0.00 | 0.00 | 0.00 | 80 | 1018.2 |
| 20260510034521 | 49 | 49 | 1.7 | 5.2 | 0.00 | 0.00 | 0.00 | 80 | 1018.3 |
| 20260510033024 | 49 | 79 | 1.7 | 8.7 | 0.00 | 0.00 | 0.00 | 80 | 1018.4 |
| 20260510031525 | 49 | 79 | 2.6 | 5.2 | 0.00 | 0.00 | 0.00 | 79 | 1018.4 |
| 20260510030010 | 49 | 160 | 1.7 | 6.1 | 0.00 | 0.00 | 0.00 | 79 | 1018.4 |
| 20260510024517 | 49 | 70 | 1.7 | 6.1 | 0.00 | 0.00 | 0.00 | 78 | 1018.4 |
| 20260510023020 | 49 | 77 | 2.6 | 7.0 | 0.00 | 0.00 | 0.00 | 78 | 1018.4 |
| 20260510021528 | 49 | 51 | 0.9 | 6.1 | 0.00 | 0.00 | 0.00 | 80 | 1018.4 |
| 20260510020030 | 50 | 77 | 0.9 | 7.0 | 0.00 | 0.00 | 0.00 | 80 | 1018.4 |
| 20260510014509 | 50 | 30 | 0.9 | 5.2 | 0.00 | 0.00 | 0.00 | 80 | 1018.5 |
| 20260510013017 | 50 | 83 | 0.9 | 3.5 | 0.00 | 0.00 | 0.00 | 80 | 1018.7 |
| 20260510011520 | 50 | 82 | 1.7 | 5.2 | 0.00 | 0.00 | 0.00 | 79 | 1018.5 |
| 20260510010026 | 51 | 92 | 1.7 | 7.0 | 0.00 | 0.00 | 0.00 | 78 | 1018.5 |
| 20260510004528 | 51 | 71 | 1.7 | 4.3 | 0.00 | 0.00 | 0.00 | 76 | 1018.5 |
| 20260510003021 | 51 | 10 | 0.9 | 5.2 | 0.00 | 0.00 | 0.00 | 71 | 1018.6 |
| 20260510001517 | 52 | 79 | 1.7 | 9.6 | 0.00 | 0.00 | 0.00 | 64 | 1018.5 |
| 20260510000023 | 53 | 77 | 1.7 | 4.3 | 0.00 | 0.00 | 0.00 | 58 | 1018.5 |
| 20260509234527 | 54 | 83 | 0.9 | 6.1 | 0.00 | 0.00 | 0.00 | 56 | 1018.4 |
| 20260509233028 | 54 | 74 | 3.5 | 6.1 | 0.00 | 0.00 | 0.00 | 55 | 1018.3 |
| 20260509231516 | 55 | 81 | 1.7 | 4.3 | 0.00 | 0.00 | 0.00 | 55 | 1018.2 |
| 20260509230020 | 55 | 68 | 0.0 | 3.5 | 0.00 | 0.00 | 0.00 | 53 | 1018.2 |
| 20260509224531 | 55 | 92 | 0.9 | 7.0 | 0.00 | 0.00 | 0.00 | 53 | 1018.1 |
| 20260509223027 | 55 | 65 | 0.9 | 3.5 | 0.00 | 0.00 | 0.00 | 53 | 1018.1 |
| 20260509221530 | 56 | 38 | 0.9 | 2.6 | 0.00 | 0.00 | 0.00 | 51 | 1018.1 |
| 20260509220017 | 56 | 25 | 0.0 | 1.7 | 0.00 | 0.00 | 0.00 | 49 | 1018.1 |
| 20260509214521 | 57 | 54 | 0.0 | 0.9 | 0.00 | 0.00 | 0.00 | 48 | 1018.2 |
| 20260509213026 | 57 | 79 | 0.9 | 2.6 | 0.00 | 0.00 | 0.00 | 48 | 1018.0 |
| 20260509211537 | 57 | 46 | 0.0 | 2.6 | 0.00 | 0.00 | 0.00 | 49 | 1017.9 |
| 20260509210030 | 57 | 59 | 0.0 | 1.7 | 0.00 | 0.00 | 0.00 | 53 | 1017.7 |
| 20260509204519 | 58 | 72 | 0.0 | 0.9 | 0.00 | 0.00 | 0.00 | 54 | 1017.7 |
| 20260509203025 | 58 | 72 | 0.0 | 0.9 | 0.00 | 0.00 | 0.00 | 53 | 1017.5 |
| 20260509201525 | 59 | 83 | 0.0 | 0.9 | 0.00 | 0.00 | 0.00 | 51 | 1017.4 |
| 20260509200027 | 60 | 84 | 0.0 | 0.9 | 0.00 | 0.00 | 0.00 | 50 | 1017.4 |
| 20260509194530 | 60 | 84 | 0.0 | 0.9 | 0.00 | 0.00 | 0.00 | 48 | 1017.1 |
| 20260509193025 | 61 | 83 | 0.0 | 0.9 | 0.00 | 0.00 | 0.00 | 47 | 1017.0 |
| 20260509191522 | 62 | 84 | 0.0 | 0.9 | 0.00 | 0.00 | 0.00 | 46 | 1017.0 |
| 20260509190028 | 63 | 86 | 0.9 | 1.7 | 0.00 | 0.00 | 0.00 | 44 | 1016.9 |
| 20260509184532 | 64 | 84 | 0.0 | 1.7 | 0.00 | 0.00 | 0.00 | 44 | 1016.6 |
| 20260509183031 | 65 | 101 | 0.9 | 2.6 | 0.00 | 0.00 | 0.00 | 42 | 1016.5 |
| 20260509181522 | 67 | 89 | 0.9 | 2.6 | 0.00 | 0.00 | 0.00 | 41 | 1016.4 |
| 20260509180027 | 68 | 86 | 0.0 | 2.6 | 0.00 | 0.00 | 0.00 | 41 | 1016.3 |
| 20260509174527 | 68 | 96 | 0.9 | 2.6 | 0.00 | 0.00 | 0.00 | 41 | 1016.2 |
| 20260509173028 | 70 | 91 | 0.9 | 1.7 | 0.00 | 0.00 | 0.00 | 39 | 1016.0 |
| 20260509171529 | 70 | 92 | 0.9 | 1.7 | 0.00 | 0.00 | 0.00 | 39 | 1016.1 |
| 20260509170022 | 70 | 95 | 1.7 | 3.5 | 0.00 | 0.00 | 0.00 | 38 | 1016.3 |
| 20260509164527 | 70 | 98 | 1.7 | 3.5 | 0.00 | 0.00 | 0.00 | 37 | 1016.3 |
| 20260509163029 | 70 | 76 | 0.9 | 2.6 | 0.00 | 0.00 | 0.00 | 39 | 1016.2 |